sat.trackr.live / text

‹ back to catalog

SES-21

NORAD 53961 · 2022-123B

PAYLOAD ACTIVE UNKNOWN

§ Identity

Operator
Country
SES
Launch date
2022-10-04
Launch site
AFETR
Launch vehicle
Mass (kg)
RCS (m²)

Purposes: comms

External: N2YO · Heavens-Above · Gunter

§ Orbital elements

Epoch: 2026-05-25T01:24:33.034752Z

Period
1,436.10 min
Inclination
0.0265°
Eccentricity
0.0001194
Mean motion
1.00271305 rev/d
Perigee alt
35,781.7 km
Apogee alt
35,791.8 km
Semi-major
42,164.9 km
B*
0.0000e+0
RAAN
29.4982°
Arg perigee
11.0489°
Mean anomaly
92.2447°
Rev number
698

§ Raw data

SES-211 53961U 22123B   26145.05871568  .00000067  00000+0  00000+0 0  99932 53961   0.0265  29.4982 0001194  11.0489  92.2447  1.00271305  6981

JSON: /api/v1/satellites/53961 · /tle

For live sub-satellite position, see the globe view (requires WebGL).

§ Visibility from observer

Set your observer location to see the next 7 days of passes ≥ 10°. The values pass through the URL so the page stays shareable.

No JS? Fill the form by hand. The geolocation button needs JavaScript.